Weather History for KIPJ - March, 2013

Change the Weather History Date:

Saturday, March 2, 2013

  Actual Average (KCLT) Record (KCLT)
Temperature  
Mean Temperature 36 °F 47 °F  
Max Temperature 42 °F 59 °F 80 °F (1887)
Min Temperature 30 °F 36 °F 14 °F (1980)
Degree Days  
Heating Degree Days 29 18  
Month to date heating degree days 36  
Since 1 July heating degree days 2735  
Cooling Degree Days 0 0  
Month to date cooling degree days 0  
Year to date cooling degree days 0  
Moisture  
Dew Point 30 °F    
Average Humidity 80    
Maximum Humidity 93    
Minimum Humidity 49    
Precipitation  
Precipitation 0.02 in 0.14 in 1.59 in (1960)
Month to date precipitation 0.27  
Year to date precipitation 7.00  
Snow  
Snow 0.00 in 0.10 in 10.40 in (1927)
Month to date snowfall 0.1  
Since 1 July snowfall 3.8  
Snow Depth -    
Sea Level Pressure  
Sea Level Pressure 29.88 in    
Wind  
Wind Speed 1 mph (WNW)    
Max Wind Speed 13 mph    
Max Gust Speed -    
Visibility 10 miles    
Events Rain , Snow    
T = Trace of Precipitation, MM = Missing Value Source: NWS Daily Summary

Daily Weather History Graph

Daily Weather History Graph

Search for Another Location

Airport or City:

Trip Planner

Search our weather history database for the weather conditions in past years. The results will help you decide how hot, cold, wet, or windy it might be!

Date:

Astronomy

Mar. 02, 2013 Rise Set
Actual Time 6:52 AM EST 6:21 PM EST
Civil Twilight 6:27 AM EST 6:46 PM EST
Nautical Twilight 5:57 AM EST 7:16 PM EST
Astronomical Twilight 5:28 AM EST 7:45 PM EST
Moon 11:45 PM EST (3/2) 9:32 AM EST (3/2)
Length of Visible Light 12h 19m
Length of Day
11h 28m
Waning Gibbous, 74% of the Moon is Illuminated
Mar 2
Waning Gibbous
Mar 4
Last Quarter
Mar 11
New
Mar 19
First Quarter
Mar 27
Full

Hourly Weather History & Observations

Time (EST) Temp. Windchill Dew Point Humidity Pressure Visibility Wind Dir Wind Speed Gust Speed Precip Events Conditions
12:15 AM 33.8 °F - 32.0 °F 93% 29.90 in 10.0 mi Calm Calm - N/A   Overcast
12:35 AM 33.8 °F - 32.0 °F 93% 29.90 in 10.0 mi Calm Calm - N/A   Overcast
12:55 AM 35.6 °F - 30.2 °F 81% 29.90 in 10.0 mi Calm Calm - N/A   Overcast
1:15 AM 33.8 °F - 32.0 °F 93% 29.90 in 10.0 mi Calm Calm - N/A   Overcast
1:35 AM 33.8 °F - 32.0 °F 93% 29.90 in 10.0 mi Calm Calm - N/A   Overcast
1:55 AM 33.8 °F - 32.0 °F 93% 29.90 in 10.0 mi Calm Calm - N/A   Overcast
2:15 AM 33.8 °F - 32.0 °F 93% 29.89 in 10.0 mi Calm Calm - N/A   Overcast
2:35 AM 33.8 °F - 32.0 °F 93% 29.89 in 10.0 mi Calm Calm - N/A   Overcast
2:55 AM 33.8 °F - 32.0 °F 93% 29.88 in 10.0 mi Calm Calm - N/A   Overcast
3:15 AM 33.8 °F - 32.0 °F 93% 29.88 in 10.0 mi Calm Calm - N/A   Overcast
3:35 AM 33.8 °F - 32.0 °F 93% 29.87 in 10.0 mi Calm Calm - N/A   Overcast
3:55 AM 33.8 °F - 32.0 °F 93% 29.87 in 10.0 mi Calm Calm - N/A   Overcast
4:15 AM 33.8 °F - 32.0 °F 93% 29.87 in 10.0 mi Calm Calm - N/A   Overcast
4:35 AM 33.8 °F - 32.0 °F 93% 29.87 in 10.0 mi Calm Calm - N/A   Overcast
4:55 AM 33.8 °F - 32.0 °F 93% 29.87 in 10.0 mi Calm Calm - N/A   Overcast
5:15 AM 33.8 °F - 32.0 °F 93% 29.87 in 10.0 mi Calm Calm - N/A   Overcast
5:35 AM 33.8 °F - 32.0 °F 93% 29.87 in 10.0 mi Calm Calm - N/A   Overcast
5:55 AM 33.8 °F - 32.0 °F 93% 29.87 in 10.0 mi Calm Calm - N/A   Overcast
6:15 AM 33.8 °F - 32.0 °F 93% 29.88 in 10.0 mi Calm Calm - N/A   Overcast
6:35 AM 33.8 °F - 32.0 °F 93% 29.88 in 10.0 mi Calm Calm - N/A   Overcast
6:55 AM 33.8 °F - 32.0 °F 93% 29.87 in 10.0 mi Calm Calm - N/A   Overcast
7:15 AM 33.8 °F - 32.0 °F 93% 29.88 in 10.0 mi Calm Calm - N/A   Overcast
7:35 AM 33.8 °F - 32.0 °F 93% 29.89 in 10.0 mi Calm Calm - N/A   Overcast
7:55 AM 35.6 °F - 30.2 °F 81% 29.89 in 4.0 mi Calm Calm - N/A Snow Light Snow
8:15 AM 33.8 °F - 32.0 °F 93% 29.90 in 10.0 mi Calm Calm - N/A Rain Light Rain
8:35 AM 33.8 °F - 32.0 °F 93% 29.90 in 7.0 mi Calm Calm - N/A   Overcast
8:55 AM 33.8 °F - 32.0 °F 93% 29.90 in 10.0 mi Calm Calm - N/A Rain Light Rain
9:15 AM 35.6 °F - 32.0 °F 87% 29.90 in 10.0 mi Calm Calm - N/A Rain Light Rain
9:35 AM 35.6 °F - 32.0 °F 87% 29.90 in 10.0 mi Calm Calm - N/A Rain Light Rain
9:55 AM 35.6 °F - 32.0 °F 87% 29.90 in 10.0 mi Calm Calm - N/A Snow Light Snow
10:15 AM 35.6 °F - 32.0 °F 87% 29.90 in 2.5 mi Calm Calm - N/A Rain Rain
10:35 AM 35.6 °F - 33.8 °F 93% 29.90 in 10.0 mi Calm Calm - N/A Rain Light Rain
10:55 AM 35.6 °F - 33.8 °F 93% 29.89 in 10.0 mi Calm Calm - N/A Rain Rain
11:15 AM 37.4 °F - 32.0 °F 81% 29.89 in 10.0 mi Calm Calm - N/A   Overcast
11:35 AM 37.4 °F 34.9 °F 32.0 °F 81% 29.89 in 10.0 mi West 3.5 mph - N/A Rain Light Rain
11:55 AM 37.4 °F - 32.0 °F 81% 29.89 in 10.0 mi Calm Calm - N/A   Light Drizzle
12:15 PM 39.2 °F - 32.0 °F 75% 29.88 in 10.0 mi Calm Calm - N/A   Overcast
12:35 PM 41.0 °F 39.0 °F 32.0 °F 70% 29.87 in 10.0 mi WSW 3.5 mph - N/A   Overcast
12:55 PM 41.0 °F - 32.0 °F 70% 29.86 in 10.0 mi Calm Calm - N/A   Overcast
1:15 PM 41.0 °F - 32.0 °F 70% 29.85 in 10.0 mi Calm Calm - N/A   Overcast
1:35 PM 41.0 °F - 32.0 °F 70% 29.84 in 10.0 mi Calm Calm - N/A   Overcast
1:55 PM 42.8 °F - 32.0 °F 66% 29.84 in 10.0 mi Calm Calm - N/A   Overcast
2:15 PM 42.8 °F 41.1 °F 32.0 °F 66% 29.82 in 10.0 mi North 3.5 mph - N/A   Overcast
2:35 PM 42.8 °F 41.1 °F 32.0 °F 66% 29.82 in 10.0 mi WSW 3.5 mph - N/A   Overcast
2:55 PM 37.4 °F 32.8 °F 32.0 °F 81% 29.84 in 7.0 mi NW 5.8 mph - N/A Rain Rain
3:15 PM 35.6 °F 30.7 °F 32.0 °F 87% 29.84 in 3.0 mi WSW 5.8 mph - 0.01 in Rain Rain
3:35 PM 35.6 °F 27.1 °F 33.8 °F 93% 29.83 in 10.0 mi SSW 12.7 mph - 0.02 in Rain Light Rain
3:55 PM 35.6 °F 27.1 °F 33.8 °F 93% 29.83 in 10.0 mi SW 12.7 mph - 0.02 in   Overcast
4:15 PM 37.4 °F - 32.0 °F 81% 29.82 in 10.0 mi Calm Calm - N/A   Overcast
4:35 PM 37.4 °F - 33.8 °F 87% 29.83 in 10.0 mi Calm Calm - N/A   Overcast
4:55 PM 39.2 °F - 33.8 °F 81% 29.83 in 10.0 mi Calm Calm - N/A   Mostly Cloudy
5:15 PM 41.0 °F - 33.8 °F 76% 29.84 in 10.0 mi Calm Calm - N/A   Mostly Cloudy
5:35 PM 39.2 °F 37.0 °F 33.8 °F 81% 29.85 in 10.0 mi West 3.5 mph - N/A   Mostly Cloudy
5:55 PM 39.2 °F - 33.8 °F 81% 29.85 in 10.0 mi Calm Calm - N/A   Overcast
6:15 PM 41.0 °F 35.8 °F 23.0 °F 49% 29.86 in 10.0 mi NW 8.1 mph - N/A   Overcast
6:35 PM 37.4 °F 32.1 °F 23.0 °F 56% 29.87 in 10.0 mi NW 6.9 mph - N/A   Scattered Clouds
6:55 PM 37.4 °F 33.8 °F 23.0 °F 56% 29.88 in 10.0 mi WNW 4.6 mph - N/A   Scattered Clouds
7:15 PM 37.4 °F 32.8 °F 23.0 °F 56% 29.89 in 10.0 mi NNW 5.8 mph - N/A   Scattered Clouds
7:35 PM 35.6 °F 32.8 °F 23.0 °F 60% 29.89 in 10.0 mi NW 3.5 mph - N/A   Scattered Clouds
7:55 PM 35.6 °F 32.8 °F 23.0 °F 60% 29.90 in 10.0 mi NW 3.5 mph - N/A   Scattered Clouds
8:15 PM 35.6 °F 32.8 °F 21.2 °F 56% 29.90 in 10.0 mi NW 3.5 mph - N/A   Scattered Clouds
8:35 PM 33.8 °F 29.6 °F 21.2 °F 60% 29.90 in 10.0 mi NNW 4.6 mph - N/A   Clear
8:55 PM 33.8 °F 29.6 °F 21.2 °F 60% 29.91 in 10.0 mi NNW 4.6 mph - N/A   Clear
9:15 PM 33.8 °F 30.8 °F 21.2 °F 60% 29.91 in 10.0 mi NW 3.5 mph - N/A   Clear
9:35 PM 33.8 °F - 21.2 °F 60% 29.92 in 10.0 mi Calm Calm - N/A   Clear
9:55 PM 32.0 °F - 21.2 °F 64% 29.93 in 10.0 mi Calm Calm - N/A   Clear
10:15 PM 32.0 °F - 21.2 °F 64% 29.93 in 10.0 mi Calm Calm - N/A   Clear
10:35 PM 32.0 °F - 21.2 °F 64% 29.93 in 10.0 mi Calm Calm - N/A   Clear
10:55 PM 32.0 °F - 21.2 °F 64% 29.93 in 10.0 mi Calm Calm - N/A   Clear
11:15 PM 30.2 °F - 21.2 °F 69% 29.93 in 10.0 mi Calm Calm - N/A   Clear
11:35 PM 30.2 °F - 23.0 °F 75% 29.93 in 10.0 mi Calm Calm - N/A   Clear
11:55 PM 30.2 °F - 21.2 °F 69% 29.93 in 10.0 mi Calm Calm - N/A   Clear